TimeCDT,TemperatureF,Dew PointF,Humidity,Sea Level PressureIn,VisibilityMPH,Wind Direction,Wind SpeedMPH,Gust SpeedMPH,PrecipitationIn,Events,Conditions,WindDirDegrees,DateUTC
1:52 AM,48.9,36.0,61,30.16,10.0,NNE,9.2,21.9,N/A,,Overcast,20,2012-10-26 06:52:00
2:52 AM,46.9,35.1,63,30.17,10.0,NNE,16.1,25.3,N/A,,Overcast,20,2012-10-26 07:52:00
3:52 AM,46.9,35.1,63,30.18,10.0,NNE,15.0,-,N/A,,Overcast,20,2012-10-26 08:52:00
4:52 AM,46.0,35.1,66,30.18,10.0,North,13.8,23.0,N/A,,Overcast,10,2012-10-26 09:52:00
5:52 AM,45.0,35.1,68,30.19,10.0,North,18.4,-,N/A,,Overcast,10,2012-10-26 10:52:00
6:52 AM,44.1,35.1,71,30.23,10.0,North,16.1,21.9,N/A,,Overcast,10,2012-10-26 11:52:00
7:52 AM,43.0,34.0,71,30.25,10.0,North,13.8,21.9,N/A,,Overcast,10,2012-10-26 12:52:00
8:52 AM,43.0,34.0,71,30.28,10.0,North,16.1,23.0,N/A,,Clear,360,2012-10-26 13:52:00
9:52 AM,44.1,33.1,65,30.31,10.0,North,19.6,31.1,N/A,,Mostly Cloudy,10,2012-10-26 14:52:00
10:52 AM,46.9,32.0,56,30.32,10.0,North,20.7,26.5,N/A,,Mostly Cloudy,360,2012-10-26 15:52:00
11:52 AM,48.0,30.9,52,30.33,10.0,North,17.3,31.1,N/A,,Mostly Cloudy,10,2012-10-26 16:52:00
12:52 PM,50.0,30.9,48,30.32,10.0,North,18.4,24.2,N/A,,Overcast,360,2012-10-26 17:52:00
1:52 PM,51.1,30.9,46,30.30,10.0,North,18.4,27.6,N/A,,Mostly Cloudy,10,2012-10-26 18:52:00
2:52 PM,53.1,30.0,41,30.28,10.0,NNE,16.1,25.3,N/A,,Partly Cloudy,20,2012-10-26 19:52:00
3:52 PM,53.1,27.0,37,30.27,10.0,North,20.7,29.9,N/A,,Partly Cloudy,10,2012-10-26 20:52:00
5:52 PM,52.0,26.1,37,30.27,10.0,North,17.3,25.3,N/A,,Clear,360,2012-10-26 22:52:00
6:52 PM,50.0,26.1,39,30.29,10.0,North,16.1,20.7,N/A,,Clear,10,2012-10-26 23:52:00
7:52 PM,48.0,27.0,44,30.33,10.0,North,9.2,-,N/A,,Clear,10,2012-10-27 00:52:00
8:52 PM,46.0,26.1,46,30.34,10.0,North,6.9,-,N/A,,Clear,10,2012-10-27 01:52:00
9:52 PM,44.1,27.0,51,30.36,10.0,North,6.9,-,N/A,,Clear,10,2012-10-27 02:52:00
10:52 PM,42.1,27.0,55,30.36,10.0,North,6.9,-,N/A,,Clear,10,2012-10-27 03:52:00
11:52 PM,39.9,27.0,60,30.36,10.0,North,6.9,-,N/A,,Clear,10,2012-10-27 04:52:00